GW6033 Weather Reports


time (UTC)temp
F
wind
direction
speed
knots
gust
knots
rain 1hr
in
rain 24hr
in
rain mn
in
humidity
%
barometer
mb
20260505140455 36 269 0.9 0.9 0.00 0.09 0.09 97 1016.6
20260505124909 37 277 1.7 2.6 0.00 0.07 0.07 96 1015.5
20260505124406 37 284 0.9 1.7 0.07 0.07 0.07 96 1015.6
20260505123902 37 279 1.7 1.7 0.07 0.07 0.07 96 1015.3
20260505123359 37 271 0.9 0.9 0.00 0.06 0.06 96 1015.0
20260505122854 37 275 1.7 2.6 0.05 0.06 0.06 96 1015.0
20260505122352 38 270 1.7 2.6 0.05 0.06 0.06 96 1015.0
20260505121849 38 273 0.0 0.9 0.00 0.05 0.05 96 1014.8
20260505121346 38 270 0.9 0.9 0.07 0.05 0.05 96 1014.9
20260505120842 38 262 0.9 1.7 0.07 0.05 0.05 95 1014.9
20260505120338 38 304 2.6 2.6 0.05 0.04 0.04 95 1014.5
20260505115837 39 270 2.6 2.6 0.05 0.04 0.04 95 1014.7
20260505115334 39 275 2.6 2.6 0.07 0.03 0.03 95 1014.5
20260505114832 40 273 2.6 4.3 0.07 0.03 0.03 94 1014.4
20260505114328 40 305 1.7 1.7 0.07 0.02 0.02 94 1014.1
20260505113825 40 280 0.9 1.7 0.12 0.02 0.02 93 1014.2
20260505113321 41 269 1.7 1.7 0.05 0.01 0.01 92 1014.3
20260505112817 42 265 2.6 2.6 0.00 0.00 0.00 91 1013.8
20260505112315 42 276 0.9 0.9 0.00 0.00 0.00 91 1014.3
20260505111810 42 330 1.7 2.6 0.00 0.00 0.00 91 1013.8
20260505111306 42 293 0.9 0.9 0.00 0.00 0.00 91 1013.8
20260505110802 42 309 1.7 2.6 0.00 0.00 0.00 90 1013.8
20260505110300 42 284 0.9 0.9 0.00 0.00 0.00 90 1014.0
20260505101734 44 268 0.9 0.9 0.00 0.00 0.00 88 1013.1
20260505101230 44 260 0.9 0.9 0.00 0.00 0.00 88 1013.0
20260505100726 45 270 0.9 1.7 0.00 0.00 0.00 89 1013.0
20260505100223 45 298 1.7 1.7 0.00 0.00 0.00 88 1012.7
20260505095724 45 305 0.9 0.9 0.00 0.00 0.00 88 1012.9
20260505095222 45 273 0.9 0.9 0.00 0.00 0.00 88 1012.8
20260505094717 45 275 0.0 0.9 0.00 0.00 0.00 88 1012.8
20260505094214 45 275 0.9 0.9 0.00 0.00 0.00 89 1012.8
20260505093710 45 275 0.9 0.9 0.00 0.00 0.00 89 1012.7
20260505093208 45 266 0.0 0.0 0.00 0.00 0.00 90 1012.9
20260505092704 45 273 0.0 0.0 0.00 0.00 0.00 90 1012.9
20260505092203 46 277 0.9 0.9 0.00 0.00 0.00 91 1013.0
20260505091700 46 276 0.0 0.9 0.00 0.00 0.00 92 1012.9
20260505091158 46 272 0.0 0.0 0.00 0.00 0.00 92 1012.8
20260505090655 46 273 0.0 0.0 0.00 0.00 0.00 92 1012.7
20260505090154 46 273 0.0 0.0 0.00 0.00 0.00 92 1012.8
20260505085650 46 271 0.9 1.7 0.00 0.00 0.00 92 1012.8
20260505085149 46 290 0.9 0.9 0.00 0.00 0.00 92 1012.9
20260505084646 46 276 0.0 0.0 0.00 0.00 0.00 93 1013.0
20260505084144 46 276 0.0 0.0 0.00 0.00 0.00 94 1013.2
20260505083642 46 275 0.0 0.0 0.00 0.00 0.00 94 1012.9
20260505083138 46 273 0.0 0.0 0.00 0.00 0.00 94 1012.9
20260505082634 46 272 0.0 0.0 0.00 0.00 0.00 94 1013.0
20260505082131 46 272 0.0 0.0 0.00 0.00 0.00 95 1013.4
20260505081626 46 272 0.0 0.0 0.00 0.00 0.00 94 1013.0
20260505081125 46 265 0.0 0.0 0.00 0.00 0.00 95 1012.9
20260505080621 46 267 0.0 0.0 0.00 0.00 0.00 95 1013.0
20260505080117 46 268 0.0 0.0 0.00 0.00 0.00 95 1013.1
20260505075613 46 268 0.0 0.0 0.00 0.00 0.00 95 1012.9
20260505075110 46 263 0.0 0.0 0.00 0.00 0.00 95 1013.0
20260505074607 46 310 1.7 1.7 0.00 0.00 0.00 95 1012.9
20260505074104 47 265 0.0 0.9 0.00 0.00 0.00 95 1013.4
20260505073602 47 252 0.0 0.0 0.00 0.00 0.00 96 1013.5
20260505073100 47 256 0.0 0.0 0.00 0.00 0.00 96 1013.5
20260505072555 47 260 0.0 0.0 0.00 0.00 0.00 96 1013.5
20260505072052 47 258 0.0 0.0 0.00 0.00 0.00 96 1013.4
20260505071547 47 70 0.9 1.7 0.00 0.00 0.00 96 1013.5
20260505071046 47 257 0.0 0.0 0.00 0.00 0.00 96 1013.7
20260505070543 47 255 0.0 0.0 0.00 0.00 0.00 96 1013.5
20260505070039 47 256 0.0 0.0 0.00 0.00 0.00 96 1013.5
20260505065535 47 96 0.9 1.7 0.00 0.00 0.00 96 1013.5
20260505065032 47 65 0.9 1.7 0.00 0.00 0.00 96 1013.7
20260505064528 47 242 0.9 0.9 0.00 0.00 0.00 97 1013.7
20260505064027 47 255 0.0 0.0 0.00 0.00 0.00 97 1014.0
20260505063524 47 256 0.0 0.0 0.00 0.00 0.00 97 1013.7
20260505063019 47 253 0.0 0.0 0.00 0.00 0.00 97 1013.7
20260505062517 47 258 0.0 0.0 0.00 0.00 0.00 97 1013.6
20260505062014 47 274 0.9 0.9 0.00 0.00 0.00 97 1013.7
20260505061511 47 256 0.0 0.0 0.00 0.00 0.00 97 1013.6
20260505061009 47 255 0.0 0.0 0.00 0.00 0.00 97 1013.8
20260505060506 47 243 0.9 0.9 0.00 0.00 0.00 97 1013.6
20260505060002 47 253 0.0 0.0 0.00 0.07 0.07 97 1014.3
20260505055458 47 257 0.0 0.9 0.00 0.07 0.07 96 1013.8
20260505054955 47 245 0.9 1.7 0.00 0.07 0.07 96 1013.7
20260505054452 47 248 0.9 0.9 0.00 0.07 0.07 96 1013.5
20260505053950 47 255 0.0 0.9 0.00 0.07 0.07 96 1013.7
20260505053447 47 277 0.9 0.9 0.00 0.07 0.07 96 1013.5
20260505052944 47 263 0.0 0.0 0.00 0.07 0.07 96 1013.8
20260505052441 47 247 0.9 0.9 0.00 0.07 0.07 96 1013.8
20260505051938 47 256 0.0 0.0 0.00 0.07 0.07 96 1013.8
20260505051435 47 258 0.0 0.0 0.07 0.07 0.07 96 1014.0
20260505050933 47 256 0.0 0.0 0.07 0.07 0.07 95 1014.3
20260505050431 47 257 0.0 0.0 0.00 0.06 0.06 95 1014.0
20260505041359 47 238 1.7 1.7 0.05 0.04 0.04 92 1014.3
20260505040856 48 259 0.9 1.7 0.12 0.04 0.04 91 1014.2
20260505040353 48 258 1.7 2.6 0.12 0.03 0.03 89 1014.1
20260505035850 49 239 0.9 1.7 0.12 0.02 0.02 86 1014.1
20260505035345 51 253 0.9 1.7 0.07 0.01 0.01 80 1014.2
20260505034843 52 251 0.0 0.9 0.00 0.00 0.00 74 1014.1
20260505034339 52 248 1.7 2.6 0.00 0.00 0.00 68 1013.6
20260505033837 52 242 0.9 1.7 0.00 0.00 0.00 68 1013.6
20260505033333 53 245 1.7 1.7 0.00 0.00 0.00 66 1013.5
20260505032832 53 246 2.6 4.3 0.00 0.00 0.00 65 1013.5
20260505032328 53 261 0.9 0.9 0.00 0.00 0.00 65 1013.5
20260505031825 53 269 0.0 0.9 0.00 0.00 0.00 64 1013.4
20260505031321 53 263 0.0 0.0 0.00 0.00 0.00 65 1013.0
20260505030819 53 267 0.9 0.9 0.00 0.00 0.00 65 1013.2
20260505030315 53 264 0.0 0.0 0.00 0.00 0.00 65 1013.0
20260505025810 53 269 0.0 0.0 0.00 0.00 0.00 65 1013.0
20260505025308 53 265 0.0 0.0 0.00 0.00 0.00 65 1012.8
20260505024807 53 273 0.0 0.0 0.00 0.00 0.00 64 1012.7
20260505024304 53 273 0.0 0.0 0.00 0.00 0.00 63 1012.5
20260505023801 53 273 0.9 0.9 0.00 0.00 0.00 63 1012.4
20260505023258 53 272 0.0 0.0 0.00 0.00 0.00 63 1012.4
20260505022755 53 268 0.0 0.0 0.00 0.00 0.00 63 1012.4
20260505022252 53 270 0.0 0.0 0.00 0.00 0.00 62 1012.7
20260505021749 53 265 0.0 0.0 0.00 0.00 0.00 62 1012.4
20260505021246 53 277 0.0 0.9 0.00 0.00 0.00 62 1012.4
20260505020741 53 271 0.0 0.0 0.00 0.00 0.00 63 1012.9
20260505020237 53 273 0.0 0.0 0.00 0.00 0.00 62 1012.8
20260505015734 53 273 0.0 0.9 0.00 0.00 0.00 61 1012.5
20260505015231 54 276 0.0 0.0 0.00 0.00 0.00 60 1012.2
20260505014728 54 266 0.0 0.0 0.00 0.00 0.00 58 1012.1
20260505014226 54 267 0.0 0.0 0.00 0.00 0.00 58 1012.1
20260505013722 54 263 0.0 0.0 0.00 0.00 0.00 57 1012.2
20260505013219 54 288 0.9 0.9 0.00 0.00 0.00 57 1011.8
20260505012718 54 274 0.0 0.0 0.00 0.00 0.00 60 1012.1
20260505012214 54 272 0.9 0.9 0.00 0.00 0.00 60 1012.1
20260505011710 54 266 0.9 1.7 0.00 0.00 0.00 60 1011.9
20260505011208 54 240 1.7 2.6 0.00 0.00 0.00 60 1012.3
20260505010703 54 240 1.7 2.6 0.00 0.00 0.00 60 1012.1
20260505010200 56 249 4.3 6.1 0.00 0.00 0.00 54 1012.2
20260505005656 56 272 2.6 2.6 0.00 0.00 0.00 52 1011.8
20260505005153 56 262 4.3 7.0 0.00 0.00 0.00 52 1012.3
20260505004650 56 252 3.5 6.1 0.00 0.00 0.00 55 1011.9
20260505004146 57 308 2.6 4.3 0.00 0.00 0.00 51 1011.8
20260505003644 58 240 2.6 4.3 0.00 0.00 0.00 48 1011.7
20260505003141 59 266 4.3 7.0 0.00 0.00 0.00 44 1011.4
20260505002637 58 273 2.6 4.3 0.00 0.00 0.00 44 1011.6
20260505002136 59 308 2.6 4.3 0.00 0.00 0.00 45 1011.6
20260505001632 59 269 4.3 6.1 0.00 0.00 0.00 44 1011.4
20260505001130 59 293 2.6 5.2 0.00 0.00 0.00 43 1011.5
20260505000627 59 255 5.2 7.0 0.00 0.00 0.00 41 1011.0
20260505000125 60 245 9.6 11.3 0.00 0.00 0.00 40 1011.4
20260504235621 60 246 2.6 5.2 0.00 0.00 0.00 41 1011.1
20260504235117 60 266 3.5 5.2 0.00 0.00 0.00 42 1011.1
20260504234615 61 242 6.1 7.0 0.00 0.00 0.00 38 1011.0
20260504234112 62 258 3.5 6.1 0.00 0.00 0.00 35 1011.1
20260504233607 62 344 2.6 4.3 0.00 0.00 0.00 34 1010.6
20260504233104 62 295 2.6 2.6 0.00 0.00 0.00 33 1010.9
20260504232601 63 267 4.3 6.1 0.00 0.00 0.00 33 1010.8
20260504232059 63 297 3.5 5.2 0.00 0.00 0.00 33 1010.5
20260504231555 63 291 3.5 4.3 0.00 0.00 0.00 33 1010.6
20260504231051 63 283 4.3 6.1 0.00 0.00 0.00 33 1010.5
20260504230547 63 298 3.5 5.2 0.00 0.00 0.00 32 1010.3
20260504230046 63 251 1.7 1.7 0.00 0.00 0.00 32 1010.2
20260504225543 63 256 2.6 4.3 0.00 0.00 0.00 32 1010.2
20260504225040 63 291 3.5 4.3 0.00 0.00 0.00 32 1010.3
20260504224537 64 260 7.0 7.8 0.00 0.00 0.00 32 1010.2
20260504224034 64 291 6.1 7.8 0.00 0.00 0.00 31 1010.2
20260504223531 64 265 2.6 4.3 0.00 0.00 0.00 32 1010.2
20260504223026 64 272 8.7 12.2 0.00 0.00 0.00 31 1010.1
20260504222523 64 302 4.3 7.0 0.00 0.00 0.00 31 1010.3
20260504222021 64 307 3.5 4.3 0.00 0.00 0.00 30 1010.2
20260504221518 64 303 1.7 4.3 0.00 0.00 0.00 30 1010.2
20260504221015 64 269 5.2 7.8 0.00 0.00 0.00 30 1010.1
20260504220511 66 231 4.3 6.1 0.00 0.00 0.00 29 1009.8
20260504220009 67 318 4.3 6.1 0.00 0.00 0.00 25 1009.5
20260504215505 67 216 4.3 5.2 0.00 0.00 0.00 25 1009.5
20260504215003 67 233 4.3 6.1 0.00 0.00 0.00 24 1009.5
20260504214458 68 273 2.6 2.6 0.00 0.00 0.00 24 1009.6
20260504213955 67 250 0.9 1.7 0.00 0.00 0.00 24 1009.6
20260504213450 68 243 4.3 4.3 0.00 0.00 0.00 24 1009.6
20260504212948 69 311 7.0 12.2 0.00 0.00 0.00 23 1009.8
20260504212444 69 283 1.7 2.6 0.00 0.00 0.00 22 1010.1
20260504211942 69 262 2.6 2.6 0.00 0.00 0.00 23 1009.9
20260504211438 69 301 4.3 5.2 0.00 0.00 0.00 24 1009.7
20260504210936 70 257 4.3 6.1 0.00 0.00 0.00 23 1009.9
20260504210432 69 253 4.3 5.2 0.00 0.00 0.00 23 1010.1
20260504205929 69 255 2.6 2.6 0.00 0.00 0.00 24 1010.2
20260504205427 69 260 5.2 6.1 0.00 0.00 0.00 23 1010.3
20260504204925 68 234 1.7 1.7 0.00 0.00 0.00 24 1010.2
20260504204423 68 222 0.9 1.7 0.00 0.00 0.00 24 1010.2
20260504203922 69 255 1.7 2.6 0.00 0.00 0.00 24 1010.4
20260504203419 71 260 2.6 7.8 0.00 0.00 0.00 23 1010.3
20260504202914 70 254 8.7 11.3 0.00 0.00 0.00 24 1010.5
20260504202412 70 220 4.3 6.1 0.00 0.00 0.00 24 1010.4
20260504201909 69 255 3.5 4.3 0.00 0.00 0.00 24 1010.4
20260504201406 68 217 4.3 5.2 0.00 0.00 0.00 24 1010.4
20260504200903 68 282 7.8 8.7 0.00 0.00 0.00 24 1010.4
20260504200400 68 255 1.7 2.6 0.00 0.00 0.00 24 1010.3
20260504195857 69 259 1.7 2.6 0.00 0.00 0.00 24 1010.4
20260504195352 68 245 2.6 2.6 0.00 0.00 0.00 24 1010.4
20260504194849 71 258 3.5 5.2 0.00 0.00 0.00 22 1010.6
20260504194345 71 278 3.5 4.3 0.00 0.00 0.00 21 1010.6
20260504193841 69 308 2.6 4.3 0.00 0.00 0.00 24 1010.6
20260504193338 67 258 0.0 0.9 0.00 0.00 0.00 26 1010.5
20260504192837 66 273 0.0 0.9 0.00 0.00 0.00 26 1010.5
20260504192335 66 271 2.6 4.3 0.00 0.00 0.00 27 1010.9
20260504191833 65 284 6.1 7.8 0.00 0.00 0.00 28 1011.0
20260504191330 65 255 5.2 7.0 0.00 0.00 0.00 26 1011.0
20260504190825 66 235 1.7 2.6 0.00 0.00 0.00 26 1011.4
20260504190322 65 349 2.6 2.6 0.00 0.00 0.00 27 1011.2
20260504185818 67 237 3.5 4.3 0.00 0.00 0.00 23 1011.5
20260504185315 68 258 0.0 0.9 0.00 0.00 0.00 24 1010.8
20260504184811 68 249 0.9 1.7 0.00 0.00 0.00 23 1010.8
20260504184307 68 259 5.2 6.1 0.00 0.00 0.00 23 1010.5
20260504183803 69 244 2.6 2.6 0.00 0.00 0.00 21 1010.4
20260504183300 69 257 1.7 1.7 0.00 0.00 0.00 22 1010.5
20260504182758 70 244 3.5 6.1 0.00 0.00 0.00 22 1010.6
20260504182255 69 244 2.6 2.6 0.00 0.00 0.00 22 1010.3
20260504181753 69 294 1.7 2.6 0.00 0.00 0.00 22 1010.8
20260504181250 69 282 1.7 1.7 0.00 0.00 0.00 21 1010.5
20260504180749 69 272 1.7 1.7 0.00 0.00 0.00 21 1010.6
20260504180247 71 303 3.5 5.2 0.00 0.00 0.00 21 1010.6
20260504175745 71 266 2.6 2.6 0.00 0.00 0.00 21 1010.6
20260504175241 71 267 1.7 1.7 0.00 0.00 0.00 21 1010.5
20260504174739 71 212 2.6 2.6 0.00 0.00 0.00 21 1010.9
20260504174237 72 288 1.7 1.7 0.00 0.00 0.00 21 1010.5
20260504173733 71 252 3.5 4.3 0.00 0.00 0.00 21 1011.0
20260504173230 70 226 4.3 5.2 0.00 0.00 0.00 22 1010.9
20260504172727 71 242 12.2 17.4 0.00 0.00 0.00 21 1011.0
20260504172223 71 261 7.8 13.9 0.00 0.00 0.00 22 1011.1
20260504171720 71 266 1.7 1.7 0.00 0.00 0.00 20 1010.9
20260504171217 71 276 6.1 7.8 0.00 0.00 0.00 21 1011.1
20260504170714 70 264 1.7 1.7 0.00 0.00 0.00 23 1011.0
20260504170211 69 262 5.2 7.0 0.00 0.00 0.00 22 1011.0
20260504160129 68 236 0.9 1.7 0.00 0.00 0.00 24 1011.7
20260504151057 66 267 0.9 0.9 0.00 0.00 0.00 25 1012.1
20260504150554 65 267 0.9 1.7 0.00 0.00 0.00 26 1012.3